Location: Kiel
(54.2838°N, 10.1714°E)
Time: 06:02:03
(UTC+02:00)

ISS - Visible Passes

Search period start: 21 September 2018 00:00
Search period end: 01 October 2018 00:00
Orbit: 403 x 408 km, 51.6° (Epoch: 21 September)

Date Brightness Start Highest point End Pass type
(mag) Time Alt. Az. Time Alt. Az. Time Alt. Az.
23 Sep -1.7 21:11:17 10° SSW 21:12:19 16° S 21:12:19 16° S visible
24 Sep -2.0 20:20:11 10° S 20:22:14 16° SE 20:22:54 15° SE visible
24 Sep -1.2 21:55:03 10° SW 21:55:36 14° SW 21:55:36 14° SW visible
25 Sep -2.8 21:03:24 10° SW 21:06:00 31° S 21:06:00 31° S visible
26 Sep -2.5 20:11:54 10° SSW 20:14:39 24° SSE 20:16:18 17° ESE visible
26 Sep -1.8 21:47:33 10° WSW 21:48:59 23° WSW 21:48:59 23° WSW visible
27 Sep -3.4 20:55:46 10° WSW 20:58:56 44° SSE 20:59:10 43° SSE visible
28 Sep -3.0 20:04:03 10° SW 20:07:07 36° SSE 20:09:17 16° E visible
28 Sep -2.1 21:40:06 10° W 21:41:57 29° WSW 21:41:57 29° WSW visible
29 Sep -3.6 20:48:14 10° WSW 20:51:28 53° S 20:52:00 46° SE visible
29 Sep -0.5 22:24:35 10° W 22:24:40 11° W 22:24:40 11° W visible
30 Sep -3.3 19:56:24 10° WSW 19:59:35 47° S 20:02:01 16° E visible
30 Sep -2.3 21:32:39 10° W 21:34:41 31° WSW 21:34:41 31° WSW visible
